Location: Fernhill
(41.0167°S, 175.6333°E)
Time: 22:33:49
(UTC+00:00)

Cosmos 1741 Rocket - Pass Details

Date: 08 November 2025
Orbit: 756 x 779 km, 74.0° (Epoch: 04 December)

Event Time Altitude Azimuth Distance (km) Brightness Sun altitude
Rises 07:35:14 0° 201° (SSW) 3,252 8.1 -5.7°
Reaches altitude 10° 07:37:38 10° 201° (SSW) 2,318 7.3 -6.1°
Maximum altitude 07:42:54 83° 288° (WNW) 777 4.1 -7.0°
Drops below altitude 10° 07:48:06 10° 15° (NNE) 2,290 6.1 -7.9°
Sets 07:50:27 0° 15° (NNE) 3,209 6.8 -8.2°
Enters shadow 07:50:28 - 15° (NNE) 3,214 6.8 -8.2°
